Change the Weather History Date:

Sunday, February 3, 2013

  Actual Average Record
Temperature  
Mean Temperature 21 °F -  
Max Temperature 27 °F 26 °F 53 °F (2003)
Min Temperature 15 °F 17 °F -6 °F (2011)
Degree Days  
Heating Degree Days 44    
Moisture  
Dew Point 16 °F    
Average Humidity 81    
Maximum Humidity 100    
Minimum Humidity 51    
Precipitation  
Precipitation 0.00 in - - ()
Sea Level Pressure  
Sea Level Pressure 30.07 in    
Wind  
Wind Speed 10 mph (WSW)    
Max Wind Speed 24 mph    
Max Gust Speed 31 mph    
Visibility 6 miles    
Events Snow    
Averages and records for this station are not official NWS values.
T = Trace of Precipitation, MM = Missing Value Source: NWS Daily Summary

Daily Weather History Graph

Daily Weather History Graph

Search for Another Location

Airport or City:

Trip Planner

Search our weather history database for the weather conditions in past years. The results will help you decide how hot, cold, wet, or windy it might be!

Date:

Astronomy

Feb. 03, 2013 Rise Set
Actual Time 7:02 AM CST 5:16 PM CST
Civil Twilight 6:34 AM CST 5:45 PM CST
Nautical Twilight 6:01 AM CST 6:17 PM CST
Astronomical Twilight 5:29 AM CST 6:49 PM CST
Moon 12:30 AM CST (2/3) 10:53 AM CST (2/3)
Length of Visible Light 11h 11m
Length of Day
10h 13m
Waning Gibbous, 48% of the Moon is Illuminated
Feb 3
Waning Gibbous
Feb 10
New
Feb 17
First Quarter
Feb 25
Full
Mar 4
Last Quarter

Hourly Weather History & Observations

Time (CST) Temp. Windchill Dew Point Humidity Pressure Visibility Wind Dir Wind Speed Gust Speed Precip Events Conditions
12:27 AM 15.8 °F 8.6 °F 10.4 °F 79% 30.03 in 10.0 mi SW 4.6 mph - 0.00 in   Overcast
12:56 AM 15.1 °F 9.4 °F 10.0 °F 80% 30.09 in 6.0 mi SSW 3.5 mph - 0.00 in Snow Light Snow
1:14 AM 15.8 °F 8.6 °F 10.4 °F 79% 30.00 in 10.0 mi South 4.6 mph - 0.00 in Snow Light Snow
2:56 AM 16.2 °F 7.6 °F 12.0 °F 84% 30.06 in 8.0 mi SSW 5.8 mph - 0.00 in Snow Light Snow
3:44 AM 15.8 °F 6.1 °F 14.0 °F 93% 29.97 in 2.5 mi SW 6.9 mph - 0.00 in   Overcast
3:56 AM 16.2 °F 6.5 °F 14.0 °F 91% 30.05 in 3.0 mi SW 6.9 mph - 0.00 in Snow Light Snow
4:15 AM 15.8 °F 5.1 °F 15.8 °F 100% 29.97 in 2.5 mi SW 8.1 mph - 0.00 in   Overcast
4:24 AM 15.8 °F 5.1 °F 15.8 °F 100% 29.97 in 2.0 mi SW 8.1 mph - 0.00 in   Overcast
4:43 AM 15.8 °F 4.2 °F 15.8 °F 100% 29.97 in 1.8 mi SW 9.2 mph - 0.00 in   Overcast
4:56 AM 16.2 °F 5.5 °F 16.2 °F 100% 30.05 in 1.2 mi SW 8.1 mph - 0.00 in   Overcast
5:08 AM 17.6 °F 5.7 °F 15.8 °F 93% 29.96 in 1.8 mi SW 10.4 mph - N/A   Overcast
5:19 AM 17.6 °F 6.4 °F 15.8 °F 93% 29.97 in 2.0 mi SW 9.2 mph - N/A   Overcast
5:29 AM 17.6 °F 6.4 °F 15.8 °F 93% 29.96 in 1.8 mi SW 9.2 mph - N/A   Overcast
5:56 AM 17.1 °F 7.6 °F 17.1 °F 100% 30.05 in 1.5 mi SW 6.9 mph - N/A   Overcast
6:56 AM 19.0 °F 9.0 °F 18.1 °F 96% 30.06 in 2.0 mi WSW 8.1 mph - N/A   Overcast
7:56 AM 21.0 °F 8.6 °F 20.1 °F 96% 30.07 in 2.0 mi West 12.7 mph - 0.00 in Snow Light Snow
8:05 AM 21.2 °F 7.3 °F 19.4 °F 93% 30.00 in 3.0 mi WNW 16.1 mph - 0.00 in Snow Light Snow
8:38 AM 21.2 °F 7.8 °F 21.2 °F 100% 30.01 in 2.0 mi NW 15.0 mph - 0.00 in Snow Light Snow
8:56 AM 22.1 °F 6.8 °F 20.1 °F 92% 30.09 in 2.0 mi WNW 20.7 mph 27.6 mph 0.00 in Snow Light Snow
9:36 AM 23.0 °F 7.2 °F 17.6 °F 80% 30.01 in 2.0 mi NW 23.0 mph 31.1 mph 0.00 in Snow Light Snow
9:56 AM 23.0 °F 8.7 °F 18.1 °F 82% 30.11 in 4.0 mi NW 18.4 mph 26.5 mph 0.00 in Snow Light Snow
10:56 AM 23.0 °F 8.0 °F 17.1 °F 78% 30.13 in 6.0 mi WNW 20.7 mph 28.8 mph 0.00 in Snow Light Snow
11:02 AM 23.0 °F 6.9 °F 17.6 °F 80% 30.05 in 7.0 mi WNW 24.2 mph 28.8 mph 0.00 in Snow Light Snow
11:56 AM 25.2 °F 10.1 °F 16.2 °F 69% 30.13 in 6.0 mi NW 23.0 mph - 0.00 in Snow Light Snow
12:30 PM 24.8 °F 9.6 °F 15.8 °F 69% 30.07 in 10.0 mi West 23.0 mph - 0.00 in   Scattered Clouds
12:37 PM 24.8 °F 10.7 °F 15.8 °F 69% 30.06 in 8.0 mi WNW 19.6 mph 28.8 mph 0.00 in   Mostly Cloudy
12:56 PM 25.2 °F 10.8 °F 15.1 °F 66% 30.15 in 10.0 mi WNW 20.7 mph 26.5 mph 0.00 in   Scattered Clouds
1:56 PM 26.1 °F 12.0 °F 13.1 °F 58% 30.16 in 10.0 mi WNW 20.7 mph - N/A   Clear
2:56 PM 27.1 °F 14.1 °F 12.0 °F 53% 30.17 in 10.0 mi WNW 18.4 mph - N/A   Clear
3:56 PM 27.1 °F 14.9 °F 11.1 °F 51% 30.15 in 10.0 mi WNW 16.1 mph - N/A   Clear
4:56 PM 26.1 °F 16.2 °F 13.1 °F 58% 30.14 in 10.0 mi West 10.4 mph - N/A   Mostly Cloudy
5:56 PM 26.1 °F 17.6 °F 15.1 °F 63% 30.13 in 10.0 mi West 8.1 mph - N/A   Overcast
6:56 PM 26.1 °F 18.4 °F 17.1 °F 69% 30.14 in 10.0 mi WSW 6.9 mph - N/A   Overcast
7:56 PM 26.1 °F 17.6 °F 18.1 °F 72% 30.14 in 10.0 mi WSW 8.1 mph - N/A   Overcast
8:56 PM 24.1 °F 16.0 °F 16.2 °F 72% 30.14 in 10.0 mi WSW 6.9 mph - N/A   Clear
9:56 PM 23.0 °F 15.8 °F 16.2 °F 75% 30.14 in 10.0 mi SW 5.8 mph - N/A   Mostly Cloudy
10:56 PM 20.1 °F 10.3 °F 14.0 °F 77% 30.11 in 10.0 mi South 8.1 mph - N/A   Partly Cloudy
11:56 PM 24.1 °F 13.7 °F 17.1 °F 75% 30.07 in 10.0 mi South 10.4 mph - N/A   Overcast